Location: Altmatt
(47.1333°N, 8.7000°E)
Time: 02:27:31
(UTC+00:00)

DELTA 2 R/B (1) - Pass Details

Date: 13 July 2020
Orbit: 791 x 802 km, 39.6° (Epoch: 04 August)

Event Time Altitude Azimuth Distance (km) Brightness Sun altitude
Rises 21:46:43 0° 266° (W) 3,287 7.1 -17.3°
Reaches altitude 10° 21:49:29 10° 256° (WSW) 2,358 6.1 -17.5°
Maximum altitude 21:54:12 29° 198° (SSW) 1,424 4.5 -17.8°
Enters shadow 21:54:56 28° 183° (S) 1,454 4.4 -17.9°
